カタログに戻る

DELTA 1 DEB

運用中PO
NORAD 8954·DEBRIS·🇺🇸 United States

打ち上げ Jan 22, 1975 から Vandenberg Space Force Base

Loading…

次のパス (今後24時間)

TLE

最新Source: Space-Track

元期: Sep 14, 2026, 07:45 UTC

1 08954U 75004AL  26257.32347934  .00002092  00000-0  54774-3 0  9992
2 08954  97.7308  31.6932 0118481 135.8109 225.2624 14.46091814623839

AllMySatでDELTA 1 DEBをリアルタイム追跡

Download on the App Store